EW2353 Weather Reports


Display with metric or nautical units.
time (UTC)temp
F
wind
direction
speed
MPH
gust
MPH
rain 1hr
in
rain 24hr
in
rain mn
in
humidity
%
barometer
mb
20260831005845 73 198 0.0 0.0 0.00 0.00 0.00 92 1019.0
20260831005316 73 198 0.0 0.0 0.00 0.00 0.00 92 1018.8
20260831004809 74 198 0.0 0.0 0.00 0.00 0.00 91 1018.7
20260831004322 74 198 0.0 0.0 0.00 0.00 0.00 91 1018.6
20260831003814 74 198 0.0 0.0 0.00 0.00 0.00 90 1018.6
20260831003331 75 198 0.0 0.0 0.00 0.00 0.00 89 1018.5
20260831002823 75 198 0.0 0.0 0.00 0.00 0.00 89 1018.5
20260831002315 76 198 0.0 0.0 0.00 0.00 0.00 88 1018.4
20260831001827 76 198 0.0 0.0 0.00 0.00 0.00 88 1018.5
20260831001321 77 198 0.0 0.0 0.00 0.00 0.00 88 1018.4
20260831000813 77 198 0.0 0.0 0.00 0.00 0.00 87 1018.5
20260831000326 78 198 0.0 0.0 0.00 0.00 0.00 85 1018.4
20260830235818 79 198 0.0 0.0 0.00 0.00 0.00 84 1018.5
20260830235315 79 198 0.0 0.0 0.00 0.00 0.00 84 1018.5
20260830234827 80 198 0.0 0.0 0.00 0.00 0.00 83 1018.5
20260830234321 81 198 0.0 0.0 0.00 0.00 0.00 81 1018.4
20260830233813 81 198 0.0 0.0 0.00 0.00 0.00 80 1018.3
20260830233325 82 198 0.0 0.0 0.00 0.00 0.00 78 1018.3
20260830232818 83 198 0.0 0.0 0.00 0.00 0.00 77 1018.3
20260830232311 84 198 0.0 0.0 0.00 0.00 0.00 76 1018.4
20260830231824 84 198 0.0 0.0 0.00 0.00 0.00 72 1018.3
20260830231320 85 198 0.0 0.0 0.00 0.00 0.00 71 1018.3
20260830230814 86 198 0.0 0.0 0.00 0.00 0.00 70 1018.3
20260830230346 86 198 0.0 0.0 0.00 0.00 0.00 69 1018.2
20260830225818 85 198 0.0 0.0 0.00 0.00 0.00 70 1018.0
20260830225332 86 198 0.0 1.0 0.00 0.00 0.00 66 1018.0
20260830224823 86 207 0.0 1.0 0.00 0.00 0.00 69 1018.0
20260830224316 85 207 0.0 1.0 0.00 0.00 0.00 70 1017.9
20260830223849 85 207 0.0 1.0 0.00 0.00 0.00 69 1017.9
20260830223321 84 207 0.0 3.0 0.00 0.00 0.00 69 1017.9
20260830222813 84 226 0.0 4.0 0.00 0.00 0.00 67 1017.9
20260830222310 85 219 0.0 4.0 0.00 0.00 0.00 67 1017.9
20260830221823 85 215 0.0 4.0 0.00 0.00 0.00 67 1018.0
20260830221315 86 219 1.0 4.0 0.00 0.00 0.00 65 1018.1
20260830220828 86 215 0.0 4.0 0.00 0.00 0.00 64 1018.2
20260830220321 85 218 1.0 4.0 0.00 0.00 0.00 63 1018.2
20260830215813 85 208 1.0 5.0 0.00 0.00 0.00 66 1018.1
20260830215326 84 195 2.0 5.0 0.00 0.00 0.00 66 1018.0
20260830214840 84 182 1.0 4.0 0.00 0.00 0.00 66 1018.0
20260830214331 84 215 1.0 4.0 0.00 0.00 0.00 66 1018.0
20260830213827 84 207 2.0 4.0 0.00 0.00 0.00 66 1018.0
20260830213320 84 210 1.0 5.0 0.00 0.00 0.00 66 1018.2
20260830212812 85 244 0.0 6.0 0.00 0.00 0.00 64 1018.3
20260830212346 85 223 0.0 6.0 0.00 0.00 0.00 63 1018.2
20260830211817 86 238 1.0 5.0 0.00 0.00 0.00 63 1018.2
20260830211310 86 238 1.0 5.0 0.00 0.00 0.00 64 1018.2
20260830210823 86 225 0.0 6.0 0.00 0.00 0.00 64 1018.3
20260830210316 87 269 1.0 6.0 0.00 0.00 0.00 62 1018.3
20260830205810 87 215 1.0 4.0 0.00 0.00 0.00 59 1018.4
20260830205322 88 212 1.0 4.0 0.00 0.00 0.00 60 1018.4
20260830204836 88 253 1.0 5.0 0.00 0.00 0.00 58 1018.4
20260830204328 88 262 1.0 5.0 0.00 0.00 0.00 60 1018.4
20260830203820 88 239 1.0 4.0 0.00 0.00 0.00 59 1018.5
20260830203313 89 273 0.0 4.0 0.00 0.00 0.00 58 1018.7
20260830202846 89 268 0.0 2.0 0.00 0.00 0.00 57 1018.7
20260830202318 89 208 0.0 2.0 0.00 0.00 0.00 55 1018.9
20260830201810 88 254 0.0 2.0 0.00 0.00 0.00 57 1019.1
20260830201323 88 274 0.0 1.0 0.00 0.00 0.00 59 1019.1
20260830200821 87 243 0.0 1.0 0.00 0.00 0.00 57 1019.2
20260830200313 88 38 0.0 1.0 0.00 0.00 0.00 56 1019.3
20260830195845 88 234 0.0 1.0 0.00 0.00 0.00 58 1019.4
20260830195317 87 241 0.0 1.0 0.00 0.00 0.00 55 1019.4
20260830194809 87 265 0.0 0.0 0.00 0.00 0.00 58 1019.6
20260830194322 87 265 0.0 1.0 0.00 0.00 0.00 57 1019.6
20260830193815 87 275 0.0 1.0 0.00 0.00 0.00 55 1019.7
20260830193328 87 200 0.0 2.0 0.00 0.00 0.00 58 1019.8
20260830192825 87 200 0.0 2.0 0.00 0.00 0.00 55 1019.9
20260830192318 87 276 1.0 2.0 0.00 0.00 0.00 56 1019.9
20260830191831 87 262 0.0 2.0 0.00 0.00 0.00 57 1020.0
20260830191343 88 233 0.0 2.0 0.00 0.00 0.00 56 1020.1
20260830190813 88 143 0.0 3.0 0.00 0.00 0.00 54 1020.2
20260830190326 88 274 1.0 3.0 0.00 0.00 0.00 52 1020.3
20260830185818 89 271 0.0 1.0 0.00 0.00 0.00 53 1020.3
20260830185311 88 281 0.0 3.0 0.00 0.00 0.00 56 1020.5
20260830184844 87 266 0.0 3.0 0.00 0.00 0.00 56 1020.5
20260830184315 88 295 1.0 4.0 0.00 0.00 0.00 55 1020.6
20260830183813 87 276 0.0 5.0 0.00 0.00 0.00 61 1020.7
20260830183324 87 140 0.0 7.0 0.00 0.00 0.00 56 1020.8
20260830182817 87 264 1.0 5.0 0.00 0.00 0.00 56 1020.9
20260830182310 87 268 2.0 6.0 0.00 0.00 0.00 62 1020.9
20260830181822 87 235 3.0 6.0 0.00 0.00 0.00 60 1021.0
20260830181315 87 336 0.0 5.0 0.00 0.00 0.00 61 1021.1
20260830180828 87 278 1.0 7.0 0.00 0.00 0.00 60 1021.1
20260830180320 88 251 1.0 7.0 0.00 0.00 0.00 57 1021.2
20260830175818 88 355 0.0 6.0 0.00 0.00 0.00 62 1021.1
20260830175310 87 281 3.0 6.0 0.00 0.00 0.00 59 1021.2
20260830174824 86 33 1.0 9.0 0.00 0.00 0.00 60 1021.3
20260830174316 86 243 4.0 8.0 0.00 0.00 0.00 62 1021.4
20260830173829 86 284 1.0 9.0 0.00 0.00 0.00 64 1021.4
20260830173321 86 245 5.0 9.0 0.00 0.00 0.00 62 1021.5
20260830172814 86 271 4.0 9.0 0.00 0.00 0.00 63 1021.5
20260830172311 86 255 3.0 5.0 0.00 0.00 0.00 64 1021.6
20260830171843 86 290 1.0 7.0 0.00 0.00 0.00 63 1021.6
20260830171315 86 284 3.0 7.0 0.00 0.00 0.00 66 1021.6
20260830170827 85 262 4.0 8.0 0.00 0.00 0.00 64 1021.6
20260830170320 85 249 4.0 10.0 0.00 0.00 0.00 65 1021.6
20260830165813 85 233 7.0 10.0 0.00 0.00 0.00 63 1021.6
20260830165326 86 244 3.0 8.0 0.00 0.00 0.00 66 1021.6
20260830164838 85 263 2.0 5.0 0.00 0.00 0.00 66 1021.6
20260830164310 85 271 2.0 6.0 0.00 0.00 0.00 69 1021.6
20260830163822 84 257 4.0 6.0 0.00 0.00 0.00 68 1021.5
20260830163318 84 242 2.0 6.0 0.00 0.00 0.00 71 1021.5
20260830162811 84 260 3.0 7.0 0.00 0.00 0.00 69 1021.5
20260830162344 83 244 4.0 7.0 0.00 0.00 0.00 69 1021.5
20260830161816 84 236 4.0 8.0 0.00 0.00 0.00 67 1021.4
20260830161329 84 253 5.0 9.0 0.00 0.00 0.00 67 1021.4
20260830160842 84 259 2.0 7.0 0.00 0.00 0.00 71 1021.3
20260830160312 84 281 2.0 8.0 0.00 0.00 0.00 74 1021.3
20260830155825 84 259 3.0 8.0 0.00 0.00 0.00 70 1021.3
20260830155318 84 225 4.0 8.0 0.00 0.00 0.00 71 1021.2
20260830154815 84 184 2.0 6.0 0.00 0.00 0.00 71 1021.2
20260830154328 83 228 1.0 6.0 0.00 0.00 0.00 73 1021.2
20260830153821 84 198 3.0 6.0 0.00 0.00 0.00 71 1021.1
20260830153313 84 188 3.0 6.0 0.00 0.00 0.00 70 1021.2
20260830152825 83 247 3.0 6.0 0.00 0.00 0.00 75 1021.1
20260830152338 83 181 4.0 6.0 0.00 0.00 0.00 72 1021.1
20260830151809 83 206 1.0 6.0 0.00 0.00 0.00 80 1021.1
20260830151322 82 166 3.0 5.0 0.00 0.00 0.00 76 1021.1
20260830150820 82 222 1.0 7.0 0.00 0.00 0.00 78 1021.0
20260830150312 81 225 3.0 7.0 0.00 0.00 0.00 77 1020.9
20260830145845 81 205 3.0 6.0 0.00 0.00 0.00 80 1020.9
20260830145317 81 205 3.0 7.0 0.00 0.00 0.00 79 1020.8
20260830144830 80 210 1.0 7.0 0.00 0.00 0.00 80 1020.8
20260830144321 80 224 4.0 7.0 0.00 0.00 0.00 79 1020.6
20260830143813 80 195 3.0 8.0 0.00 0.00 0.00 80 1020.5
20260830143325 79 242 5.0 8.0 0.00 0.00 0.00 79 1020.4
20260830142818 79 233 3.0 6.0 0.00 0.00 0.00 81 1020.4
20260830142315 79 219 3.0 6.0 0.00 0.00 0.00 81 1020.4
20260830141828 78 213 2.0 6.0 0.00 0.00 0.00 82 1020.3
20260830141321 78 215 1.0 3.0 0.00 0.00 0.00 82 1020.3
20260830140813 77 229 0.0 4.0 0.00 0.00 0.00 83 1020.3
20260830140327 77 252 2.0 3.0 0.00 0.00 0.00 82 1020.3
20260830135840 77 145 0.0 4.0 0.00 0.00 0.00 83 1020.2
20260830135348 76 224 1.0 4.0 0.00 0.00 0.00 83 1020.2
20260830134820 76 219 2.0 4.0 0.00 0.00 0.00 81 1020.2
20260830133343 76 210 0.0 3.0 0.00 0.00 0.00 84 1020.3
20260830132815 76 191 0.0 1.0 0.00 0.00 0.00 82 1020.3
20260830132328 75 150 0.0 1.0 0.00 0.00 0.00 83 1020.3
20260830131820 75 142 0.0 2.0 0.00 0.00 0.00 84 1020.4
20260830131313 74 129 1.0 3.0 0.00 0.00 0.00 83 1020.3
20260830130826 74 143 0.0 1.0 0.00 0.00 0.00 88 1020.3
20260830130318 73 147 0.0 1.0 0.00 0.00 0.00 88 1020.3
20260830125831 73 62 0.0 1.0 0.00 0.00 0.00 91 1020.3
20260830125327 72 37 0.0 1.0 0.00 0.00 0.00 92 1020.3
20260830124820 72 346 0.0 0.0 0.00 0.00 0.00 93 1020.4
20260830124333 71 346 0.0 0.0 0.00 0.00 0.00 94 1020.5
20260830123824 70 346 0.0 0.0 0.00 0.00 0.00 95 1020.5
20260830123317 70 346 0.0 0.0 0.00 0.00 0.00 96 1020.6
20260830122810 69 345 0.0 0.0 0.00 0.00 0.00 96 1020.7
20260830122322 69 346 0.0 0.0 0.00 0.00 0.00 96 1020.7
20260830121835 68 316 0.0 0.0 0.00 0.00 0.00 96 1020.7
20260830121327 68 286 0.0 0.0 0.00 0.00 0.00 96 1020.7
20260830120839 68 285 0.0 0.0 0.00 0.00 0.00 96 1020.6
20260830120315 67 284 0.0 0.0 0.00 0.00 0.00 96 1020.5
20260830115828 67 285 0.0 0.0 0.00 0.00 0.00 96 1020.5
20260830115321 66 285 0.0 0.0 0.00 0.00 0.00 96 1020.5
20260830114814 66 284 0.0 0.0 0.00 0.00 0.00 97 1020.4
20260830114327 66 284 0.0 0.0 0.00 0.00 0.00 97 1020.3
20260830113819 65 285 0.0 0.0 0.00 0.00 0.00 97 1020.3
20260830113313 65 284 0.0 0.0 0.00 0.00 0.00 97 1020.2
20260830112810 64 285 0.0 0.0 0.00 0.00 0.00 97 1020.2
20260830112322 64 285 0.0 0.0 0.00 0.00 0.00 97 1020.1
20260830111815 64 284 0.0 0.0 0.00 0.00 0.00 97 1020.1
20260830111328 63 285 0.0 0.0 0.00 0.00 0.00 97 1019.9
20260830110821 63 285 0.0 0.0 0.00 0.00 0.00 97 1019.9
20260830110314 63 285 0.0 0.0 0.00 0.00 0.00 97 1019.8
20260830105826 63 285 0.0 0.0 0.00 0.00 0.00 97 1019.8
20260830105319 63 284 0.0 0.0 0.00 0.00 0.00 97 1019.9
20260830104832 63 284 0.0 0.0 0.00 0.00 0.00 97 1019.8
20260830104327 63 284 0.0 0.0 0.00 0.00 0.00 96 1019.8
20260830103820 64 284 0.0 0.0 0.00 0.00 0.00 96 1019.7
20260830103313 64 285 0.0 0.0 0.00 0.00 0.00 96 1019.7
20260830102844 64 285 0.0 0.0 0.00 0.00 0.00 96 1019.7
20260830102317 64 284 0.0 0.0 0.00 0.00 0.00 96 1019.7
20260830101809 65 285 0.0 0.0 0.00 0.00 0.00 96 1019.7
20260830101322 65 285 0.0 0.0 0.00 0.00 0.00 96 1019.6
20260830100835 65 285 0.0 0.0 0.00 0.00 0.00 96 1019.7
20260830100327 65 284 0.0 0.0 0.00 0.00 0.00 96 1019.7
20260830095840 66 285 0.0 0.0 0.00 0.00 0.00 96 1019.8
20260830095316 66 284 0.0 0.0 0.00 0.00 0.00 96 1019.7
20260830094828 66 284 0.0 0.0 0.00 0.00 0.00 96 1019.9
20260830094341 67 285 0.0 0.0 0.00 0.00 0.00 96 1019.8
20260830093833 67 284 0.0 0.0 0.00 0.00 0.00 96 1019.9
20260830093324 67 284 0.0 0.0 0.00 0.00 0.00 96 1019.9
20260830092816 67 285 0.0 0.0 0.00 0.00 0.00 96 1019.8
20260830092310 67 284 0.0 0.0 0.00 0.00 0.00 96 1019.8
20260830091823 67 285 0.0 0.0 0.00 0.00 0.00 96 1019.8
20260830091335 67 284 0.0 0.0 0.00 0.00 0.00 96 1019.8
20260830090810 67 284 0.0 0.0 0.00 0.00 0.00 97 1019.8
20260830090343 67 284 0.0 0.0 0.00 0.00 0.00 97 1019.8
20260830085832 67 285 0.0 0.0 0.00 0.00 0.00 97 1019.6
20260830085323 67 285 0.0 0.0 0.00 0.00 0.00 97 1019.6
20260830084815 67 284 0.0 0.0 0.00 0.00 0.00 97 1019.7
20260830084327 67 284 0.0 0.0 0.00 0.00 0.00 97 1019.8
20260830083841 67 285 0.0 0.0 0.00 0.00 0.00 97 1019.7
20260830082825 67 285 0.0 0.0 0.00 0.00 0.00 97 1019.8
20260830082318 67 284 0.0 0.0 0.00 0.00 0.00 97 1019.7
20260830081324 66 285 0.0 0.0 0.00 0.00 0.00 97 1019.8
20260830080837 66 285 0.0 0.0 0.00 0.00 0.00 97 1019.8
20260830075825 66 284 0.0 0.0 0.00 0.00 0.00 97 1019.9
20260830075313 66 285 0.0 0.0 0.00 0.00 0.00 97 1019.9
20260830074846 66 285 0.0 0.0 0.00 0.00 0.00 97 1019.9
20260830074337 66 285 0.0 0.0 0.00 0.00 0.00 97 1020.0
20260830073829 66 284 0.0 0.0 0.00 0.00 0.00 97 1020.1
20260830073322 66 285 0.0 0.0 0.00 0.00 0.00 97 1020.1
20260830072814 65 285 0.0 0.0 0.00 0.00 0.00 97 1020.0
20260830072327 65 285 0.0 0.0 0.00 0.00 0.00 97 1020.1
20260830071821 65 285 0.0 0.0 0.00 0.00 0.00 97 1020.2
20260830071313 65 284 0.0 0.0 0.00 0.00 0.00 97 1020.2
20260830070827 65 285 0.0 0.0 0.00 0.00 0.00 97 1020.3
20260830070339 65 285 0.0 0.0 0.00 0.00 0.00 97 1020.3
20260830065830 65 284 0.0 0.0 0.00 0.00 0.00 97 1020.3
20260830065342 65 285 0.0 0.0 0.00 0.00 0.00 97 1020.3
20260830064813 65 284 0.0 0.0 0.00 0.00 0.00 97 1020.4
20260830064323 65 284 0.0 0.0 0.00 0.00 0.00 97 1020.4
20260830063836 66 284 0.0 0.0 0.00 0.00 0.00 97 1020.4
20260830062841 66 285 0.0 0.0 0.00 0.00 0.00 97 1020.6
20260830061809 66 285 0.0 0.0 0.00 0.00 0.00 97 1020.5
20260830061322 66 284 0.0 0.0 0.00 0.00 0.00 97 1020.5
20260830060815 66 284 0.0 0.0 0.00 0.00 0.00 97 1020.5
20260830060328 66 284 0.0 0.0 0.00 0.00 0.00 97 1020.4
20260830055820 66 285 0.0 0.0 0.00 0.00 0.00 97 1020.5
20260830055313 66 284 0.0 0.0 0.00 0.00 0.00 97 1020.6
20260830054322 66 285 0.0 0.0 0.00 0.00 0.00 97 1020.6
20260830053328 65 284 0.0 0.0 0.00 0.00 0.00 97 1020.6
20260830052841 65 284 0.0 0.0 0.00 0.00 0.00 97 1020.6
20260830052312 65 284 0.0 0.0 0.00 0.00 0.00 97 1020.6
20260830051826 65 285 0.0 0.0 0.00 0.00 0.00 97 1020.6
20260830051339 65 285 0.0 0.0 0.00 0.00 0.00 97 1020.6
20260830050810 65 284 0.0 0.0 0.00 0.00 0.00 97 1020.6
20260830050323 65 284 0.0 0.0 0.00 0.00 0.00 97 1020.5
20260830045820 65 284 0.0 0.0 0.00 0.00 0.00 97 1020.4
20260830045313 65 285 0.0 0.0 0.00 0.00 0.00 97 1020.4
20260830044826 65 284 0.0 0.0 0.00 0.00 0.00 97 1020.4
20260830044318 64 285 0.0 0.0 0.00 0.00 0.00 97 1020.3
20260830043850 64 285 0.0 0.0 0.00 0.00 0.00 97 1020.3
20260830043322 64 284 0.0 0.0 0.00 0.00 0.00 97 1020.3
20260830042816 64 285 0.0 0.0 0.00 0.00 0.00 97 1020.2
20260830042328 64 284 0.0 0.0 0.00 0.00 0.00 97 1020.2
20260830041821 64 285 0.0 0.0 0.00 0.00 0.00 96 1020.3
20260830041338 64 284 0.0 0.0 0.00 0.00 0.00 96 1020.3
20260830040850 64 284 0.0 0.0 0.00 0.00 0.00 96 1020.3
20260830040321 64 285 0.0 0.0 0.00 0.00 0.00 96 1020.3
20260830035833 64 285 0.0 0.0 0.00 0.00 0.00 96 1020.3
20260830035325 65 284 0.0 0.0 0.00 0.00 0.00 96 1020.3
20260830034830 65 284 0.0 0.0 0.00 0.00 0.00 95 1020.2
20260830034323 65 284 0.0 0.0 0.00 0.00 0.00 95 1020.3
20260830033812 65 284 0.0 0.0 0.00 0.00 0.00 95 1020.4
20260830033324 66 285 0.0 0.0 0.00 0.00 0.00 96 1020.4
20260830032817 66 284 0.0 0.0 0.00 0.00 0.00 96 1020.4
20260830032314 66 284 0.0 0.0 0.00 0.00 0.00 96 1020.4
20260830031826 66 284 0.0 0.0 0.00 0.00 0.00 95 1020.4
20260830031340 66 284 0.0 0.0 0.00 0.00 0.00 95 1020.4
20260830030851 67 284 0.0 0.0 0.00 0.00 0.00 95 1020.3
20260830030322 67 285 0.0 0.0 0.00 0.00 0.00 95 1020.4
20260830025815 67 284 0.0 0.0 0.00 0.00 0.00 95 1020.3
20260830025348 67 284 0.0 0.0 0.00 0.00 0.00 95 1020.3
20260830024820 67 284 0.0 0.0 0.00 0.00 0.00 95 1020.3
20260830024313 67 285 0.0 0.0 0.00 0.00 0.00 96 1020.3
20260830023826 67 285 0.0 0.0 0.00 0.00 0.00 95 1020.3
20260830023322 67 284 0.0 0.0 0.00 0.00 0.00 96 1020.2
20260830022836 67 284 0.0 0.0 0.00 0.00 0.00 96 1020.1
20260830022327 67 284 0.0 0.0 0.00 0.00 0.00 95 1020.2
20260830021840 67 285 0.0 0.0 0.00 0.00 0.00 95 1020.1
20260830021312 67 285 0.0 0.0 0.00 0.00 0.00 95 1020.1
20260830020844 67 285 0.0 0.0 0.00 0.00 0.00 95 1020.1
20260830020336 67 284 0.0 0.0 0.00 0.00 0.00 95 1020.2
20260830015828 67 285 0.0 0.0 0.00 0.00 0.00 94 1020.3
20260830015320 67 285 0.0 0.0 0.00 0.00 0.00 94 1020.2
20260830014813 67 284 0.0 0.0 0.00 0.00 0.00 93 1020.2
20260830014330 68 284 0.0 0.0 0.00 0.00 0.00 93 1020.1
20260830013823 68 285 0.0 0.0 0.00 0.00 0.00 92 1020.0
20260830013316 68 285 0.0 0.0 0.00 0.00 0.00 92 1019.9
20260830012829 69 285 0.0 0.0 0.00 0.00 0.00 92 1019.9
20260830012342 69 284 0.0 0.0 0.00 0.00 0.00 92 1019.9
20260830011814 69 285 0.0 0.0 0.00 0.00 0.00 92 1019.8
20260830011326 69 285 0.0 0.0 0.00 0.00 0.00 91 1019.8
20260830010820 70 284 0.0 0.0 0.00 0.00 0.00 91 1019.7
20260830010316 70 284 0.0 0.0 0.00 0.00 0.00 92 1019.7